Home > Time Zones > World Clock > Weather > China > Sian > Past weeks

Flag for China Weather past 2 weeks in Sian, Shaanxi, China

Now
32 °F

Haze.


Feels Like: 25 °F
Forecast: 28 / 44 °F
Wind: 8 mph from Northeast

Location: Xian/Xianyang

Current Time: Dec 19, 2014 at 11:27:30 PM

Latest Report: Dec 19, 2014 at 11:00 PM


Visibility: 2 mi

Pressure: 30.36 "Hg

Humidity: 44%

Dew point: 12 °F

Location of SianLocation

Historic Weather in Sian — Graph

°F

Sian temperature yesterday

Maximum temperature yesterday: 43 °F (at 2:00 PM)
Minimum temperature yesterday: 18 °F (at 6:00 AM)
Average temperature yesterday: 29 °F

Past Weeks' High & Low Weather Summary

 TemperatureHumidityPressure
High52 °F (Dec 7, 3:00 PM)93% (Dec 9, 5:00 PM)30.80 "Hg (Dec 9, 5:00 PM)
Low14 °F (Dec 17, 6:00 AM)16% (Dec 16, 1:00 PM)30.12 "Hg (Dec 8, 4:00 PM)
Average32 °F54%30.43 "Hg
* Reported Dec 4 10:00 PM — Dec 19 10:00 PM, Sian, Weather by CustomWeather, © 2014

Note: Actual official high and low records may vary slightly from our data, if they occured in-between our weather recording intervals... More about our weather records

Advertising

Sian weather history for previous 24 hours

 ConditionsComfort  
Time TempWeatherWind HumidityBarometerVisibility
10:00 PM
Dec 19
32 °FHaze.8 mph47%30.36 "Hg1 mi
9:00 PM28 °FClear.3 mph59%30.36 "Hg1 mi
8:00 PM34 °FClear.6 mph44%30.33 "Hg1 mi
7:00 PM28 °FHaze.3 mph59%30.33 "Hg1 mi
6:00 PM36 °FHaze.3 mph38%30.33 "Hg1 mi
5:00 PM43 °FHaze.6 mph26%30.30 "Hg2 mi
4:00 PM45 °FHaze.8 mph34%30.30 "Hg2 mi
3:00 PM46 °FHaze.8 mph32%30.30 "Hg2 mi
2:00 PM46 °FHaze.8 mph34%30.30 "Hg2 mi
1:00 PM45 °FHaze.3 mph37%30.33 "Hg1 mi
12:00 PM43 °FHaze.3 mph42%30.36 "Hg2 mi
11:00 AM37 °FHaze.1 mph45%30.36 "Hg2 mi
10:00 AM32 °FHaze.3 mph55%30.36 "Hg2 mi
9:00 AM27 °FHaze.1 mph74%30.33 "Hg1 mi
8:00 AM18 °FIce fog.3 mph86%30.33 "Hg1 mi
7:00 AM18 °FIce fog.1 mph79%30.30 "Hg1 mi
6:00 AM18 °FIce fog.1 mph86%30.27 "Hg1 mi
5:00 AM18 °FIce fog.No wind79%30.27 "Hg1 mi
4:00 AM19 °FIce fog.No wind79%30.27 "Hg1 mi
3:00 AM25 °FHaze.3 mph74%30.30 "Hg1 mi
2:00 AM19 °FHaze.1 mph79%30.27 "Hg1 mi
1:00 AM23 °FHaze.1 mph68%30.30 "Hg1 mi
12:00 AM27 °FHaze.1 mph64%30.30 "Hg1 mi
11:00 PM
Dec 18
27 °FHaze.3 mph64%30.33 "Hg1 mi
Weather by CustomWeather, © 2014

See weather overviewHow to use our weather pages